TimeAKDT,TemperatureF,Dew PointF,Humidity,Sea Level PressureIn,VisibilityMPH,Wind Direction,Wind SpeedMPH,Gust SpeedMPH,PrecipitationIn,Events,Conditions,WindDirDegrees,DateUTC
12:16 AM,33.8,21.2,60,29.88,10.0,East,10.4,-,N/A,,Overcast,90,2013-03-15 08:16:00
12:36 AM,33.8,21.2,60,29.89,10.0,East,12.7,-,N/A,,Overcast,90,2013-03-15 08:36:00
12:56 AM,33.8,23.0,65,29.89,10.0,East,16.1,-,N/A,,Overcast,90,2013-03-15 08:56:00
1:16 AM,33.8,21.2,60,29.89,10.0,East,13.8,18.4,N/A,,Overcast,100,2013-03-15 09:16:00
1:36 AM,33.8,21.2,60,29.90,10.0,East,11.5,-,N/A,,Overcast,90,2013-03-15 09:36:00
1:56 AM,33.8,21.2,60,29.90,10.0,East,10.4,-,N/A,,Overcast,80,2013-03-15 09:56:00
2:16 AM,33.8,21.2,60,29.90,10.0,East,10.4,-,N/A,,Overcast,80,2013-03-15 10:16:00
2:36 AM,33.8,21.2,60,29.90,10.0,East,18.4,25.3,N/A,,Overcast,100,2013-03-15 10:36:00
2:56 AM,33.8,23.0,65,29.90,5.0,East,15.0,21.9,N/A,,Overcast,100,2013-03-15 10:56:00
3:16 AM,32.0,24.8,75,29.90,4.0,East,13.8,20.7,N/A,,Overcast,100,2013-03-15 11:16:00
3:36 AM,32.0,24.8,75,29.90,5.0,ESE,13.8,-,N/A,,Overcast,110,2013-03-15 11:36:00
3:56 AM,32.0,24.8,75,29.90,4.0,East,12.7,-,N/A,,Overcast,100,2013-03-15 11:56:00
4:16 AM,32.0,24.8,75,29.89,5.0,ESE,13.8,19.6,N/A,,Overcast,110,2013-03-15 12:16:00
4:36 AM,32.0,24.8,75,29.89,10.0,ESE,15.0,-,N/A,,Overcast,110,2013-03-15 12:36:00
4:56 AM,32.0,24.8,75,29.89,6.0,East,13.8,-,N/A,,Overcast,100,2013-03-15 12:56:00
5:16 AM,32.0,26.6,80,29.88,3.0,East,13.8,-,N/A,,Overcast,90,2013-03-15 13:16:00
5:36 AM,32.0,24.8,75,29.87,3.0,East,15.0,19.6,N/A,,Overcast,100,2013-03-15 13:36:00
5:56 AM,32.0,24.8,75,29.87,3.0,East,15.0,-,N/A,,Overcast,80,2013-03-15 13:56:00
6:16 AM,32.0,24.8,75,29.86,3.0,East,18.4,-,N/A,,Overcast,100,2013-03-15 14:16:00
6:36 AM,32.0,24.8,75,29.86,3.0,East,13.8,-,N/A,,Overcast,90,2013-03-15 14:36:00
6:56 AM,32.0,24.8,75,29.85,3.0,East,17.3,-,N/A,,Overcast,100,2013-03-15 14:56:00
7:16 AM,32.0,26.6,80,29.84,3.0,East,17.3,-,N/A,,Overcast,100,2013-03-15 15:16:00
7:36 AM,32.0,26.6,80,29.84,3.0,East,16.1,19.6,N/A,,Overcast,80,2013-03-15 15:36:00
7:56 AM,32.0,26.6,80,29.85,3.0,East,13.8,19.6,N/A,,Overcast,90,2013-03-15 15:56:00
8:16 AM,32.0,24.8,75,29.85,3.0,East,13.8,-,N/A,,Overcast,90,2013-03-15 16:16:00
8:36 AM,32.0,26.6,80,29.85,3.0,East,15.0,-,N/A,,Overcast,90,2013-03-15 16:36:00
8:56 AM,32.0,26.6,80,29.85,1.5,East,16.1,-,N/A,,Overcast,100,2013-03-15 16:56:00
9:16 AM,32.0,26.6,80,29.85,1.5,East,16.1,-,N/A,,Overcast,100,2013-03-15 17:16:00
9:36 AM,32.0,26.6,80,29.85,1.5,East,17.3,-,N/A,,Overcast,100,2013-03-15 17:36:00
9:56 AM,32.0,26.6,80,29.85,1.5,East,16.1,-,N/A,,Overcast,100,2013-03-15 17:56:00
10:16 AM,32.0,26.6,80,29.86,1.5,East,15.0,20.7,N/A,,Overcast,100,2013-03-15 18:16:00
10:36 AM,32.0,26.6,80,29.85,1.5,East,16.1,23.0,N/A,,Overcast,90,2013-03-15 18:36:00
10:56 AM,32.0,26.6,80,29.86,1.5,East,15.0,-,N/A,,Overcast,90,2013-03-15 18:56:00
11:16 AM,32.0,26.6,80,29.88,1.5,East,11.5,-,N/A,,Overcast,90,2013-03-15 19:16:00
11:36 AM,33.8,26.6,75,29.88,1.5,East,10.4,-,N/A,,Overcast,90,2013-03-15 19:36:00
11:56 AM,32.0,26.6,80,29.89,1.5,East,10.4,-,N/A,,Overcast,90,2013-03-15 19:56:00
12:16 PM,30.2,26.6,86,29.90,3.0,East,10.4,-,N/A,,Overcast,80,2013-03-15 20:16:00
12:36 PM,30.2,26.6,86,29.90,3.0,ENE,9.2,-,N/A,,Overcast,70,2013-03-15 20:36:00
12:56 PM,30.2,24.8,80,29.91,3.0,ENE,4.6,-,N/A,,Overcast,70,2013-03-15 20:56:00
1:16 PM,30.2,26.6,86,29.91,1.5,NNW,4.6,-,N/A,,Overcast,340,2013-03-15 21:16:00
1:36 PM,30.2,24.8,80,29.92,1.5,NNW,5.8,-,N/A,,Overcast,330,2013-03-15 21:36:00
1:56 PM,30.2,26.6,86,29.92,1.5,ENE,5.8,-,0.01,,Overcast,60,2013-03-15 21:56:00
2:16 PM,30.2,26.6,86,29.92,1.5,North,-9999.0,-,N/A,,Overcast,0,2013-03-15 22:16:00
2:36 PM,30.2,26.6,86,29.92,1.5,East,6.9,-,0.01,,Overcast,80,2013-03-15 22:36:00
2:56 PM,30.2,26.6,86,29.92,1.5,East,9.2,-,0.01,,Overcast,90,2013-03-15 22:56:00
3:16 PM,30.2,24.8,80,29.93,1.5,East,8.1,-,N/A,,Overcast,90,2013-03-15 23:16:00
3:36 PM,30.2,24.8,80,29.93,1.5,NNW,6.9,-,0.01,,Overcast,330,2013-03-15 23:36:00
3:56 PM,30.2,24.8,80,29.94,1.8,North,5.8,-,0.01,,Overcast,350,2013-03-15 23:56:00
4:16 PM,30.2,24.8,80,29.95,1.8,NNW,6.9,-,N/A,,Overcast,330,2013-03-16 00:16:00
4:36 PM,30.2,26.6,86,29.95,1.8,North,3.5,-,N/A,,Overcast,350,2013-03-16 00:36:00
4:56 PM,30.2,26.6,86,29.96,1.8,Calm,Calm,-,N/A,,Overcast,0,2013-03-16 00:56:00
5:16 PM,30.2,26.6,86,29.96,1.8,East,3.5,-,N/A,,Overcast,100,2013-03-16 01:16:00
5:36 PM,30.2,26.6,86,29.96,1.8,East,3.5,-,N/A,,Overcast,90,2013-03-16 01:36:00
5:56 PM,30.2,26.6,86,29.96,10.0,East,4.6,-,0.01,,Overcast,80,2013-03-16 01:56:00
6:16 PM,30.2,26.6,86,29.96,10.0,East,4.6,-,N/A,,Overcast,100,2013-03-16 02:16:00
6:36 PM,30.2,26.6,86,29.96,10.0,Calm,Calm,-,N/A,,Overcast,0,2013-03-16 02:36:00
6:56 PM,28.4,23.0,80,29.97,10.0,NNW,5.8,-,N/A,,Overcast,340,2013-03-16 02:56:00
7:16 PM,28.4,24.8,86,29.97,10.0,NNW,4.6,-,N/A,,Overcast,340,2013-03-16 03:16:00
7:36 PM,28.4,24.8,86,29.98,10.0,NNW,6.9,-,N/A,,Overcast,340,2013-03-16 03:36:00
7:56 PM,28.4,23.0,80,29.98,2.0,North,6.9,-,N/A,,Overcast,350,2013-03-16 03:56:00
8:16 PM,28.4,24.8,86,29.98,2.0,North,4.6,-,N/A,,Overcast,350,2013-03-16 04:16:00
8:36 PM,28.4,24.8,86,29.98,2.0,NNW,3.5,-,N/A,,Overcast,340,2013-03-16 04:36:00
9:56 PM,28.4,23.0,80,30.00,2.5,North,4.6,-,N/A,,Overcast,360,2013-03-16 05:56:00
10:16 PM,28.4,24.8,86,30.00,2.5,NNW,5.8,-,N/A,,Overcast,340,2013-03-16 06:16:00
10:36 PM,28.4,24.8,86,30.00,2.5,NW,5.8,-,N/A,,Overcast,320,2013-03-16 06:36:00
10:56 PM,26.6,23.0,86,30.00,2.5,NNW,5.8,-,N/A,,Overcast,330,2013-03-16 06:56:00
11:16 PM,26.6,21.2,80,30.00,4.0,Calm,Calm,-,N/A,,Overcast,0,2013-03-16 07:16:00
11:36 PM,28.4,21.2,74,30.01,3.0,Calm,Calm,-,N/A,,Overcast,0,2013-03-16 07:36:00
11:56 PM,26.6,23.0,86,30.01,7.0,NW,6.9,-,N/A,,Overcast,320,2013-03-16 07:56:00